Location: Shannon
(40.5500°S, 175.4167°E)
Time: 21:35:33
(UTC+00:00)

CZ-2C R/B - Pass Details

Date: 17 November 2025
Orbit: 782 x 867 km, 98.4° (Epoch: 06 December)

Event Time Altitude Azimuth Distance (km) Brightness Sun altitude
Rises 13:17:52 0° 160° (SSE) 3,324 7.1 -27.9°
Reaches altitude 10° 13:20:20 10° 152° (SSE) 2,395 6.0 -27.7°
Maximum altitude 13:25:20 42° 82° (E) 1,152 3.4 -27.4°
Enters shadow 13:25:52 41° 66° (ENE) 1,174 3.3 -27.3°
